Theta_e
319 311 312 309 300 299 296 299 303 303 303 307 311 311 313 314 310 303 328 334 339 341 345 345 345 345 344 343 345 346 344 341 341 341 342 345 347 347 347 347 346 345 345 344 343 341 341 340 339
313 311 310 303 296 293 294 299 301 304 311 312 311 313 313 313 322 323 328 335 342 342 344 344 342 345 344 343 344 346 344 342 341 339 339 342 344 346 346 345 346 344 342 342 343 341 341 339 338
312 310 306 298 293 292 293 299 303 308 311 306 310 315 315 316 322 326 331 339 341 341 343 343 343 344 343 343 343 344 342 341 341 338 339 338 338 339 340 342 342 344 342 342 341 340 339 338 336
308 309 303 294 296 298 297 301 305 307 306 310 312 312 318 324 325 329 338 340 339 340 342 343 344 344 343 343 343 343 341 341 338 337 337 337 337 336 336 336 339 341 342 340 339 338 339 337 335
306 305 298 293 296 299 298 303 305 302 304 307 309 311 315 324 329 335 336 338 335 338 341 344 343 344 344 343 341 342 341 340 339 336 337 336 335 335 335 335 336 339 340 339 340 339 338 335 334
302 302 296 294 294 297 299 304 303 302 304 309 312 314 318 327 330 332 335 335 337 337 340 343 337 340 341 343 342 341 341 340 338 337 336 335 335 335 335 335 335 337 338 338 339 337 336 334 332
303 300 296 295 295 296 302 303 302 302 305 307 315 310 316 322 330 333 334 334 335 337 338 340 342 340 336 338 339 339 339 340 340 339 337 338 337 336 336 335 335 335 336 336 336 336 335 333 332
304 300 295 294 294 296 302 302 303 304 303 312 315 308 313 321 330 332 332 332 333 334 334 336 336 339 341 340 333 334 336 336 337 335 333 331 331 332 332 331 335 336 336 335 334 333 332 331 330
306 297 294 296 295 297 300 300 301 302 309 305 310 313 316 327 329 330 329 329 329 330 331 334 335 336 338 339 332 331 332 331 330 329 326 327 331 331 330 328 332 335 335 332 331 330 328 325 327
301 295 296 300 299 298 298 300 300 301 304 304 311 317 323 326 326 324 324 324 324 326 328 331 334 334 334 336 336 336 333 333 330 329 329 329 329 330 330 325 326 329 330 332 329 325 322 323 324
300 297 299 300 299 300 299 298 299 299 300 304 307 314 321 324 324 324 325 326 325 327 328 330 331 332 333 331 335 336 334 331 330 327 327 328 328 329 329 327 326 327 321 325 322 320 321 321 323
302 300 300 301 300 299 299 298 297 299 302 303 309 318 322 323 324 324 325 326 325 326 327 328 330 331 331 332 331 334 333 331 329 327 327 327 327 327 326 326 325 323 322 322 321 320 319 319 320
297 298 301 300 299 298 299 297 297 297 299 303 314 319 321 323 324 326 327 328 328 326 327 327 330 330 330 330 330 331 332 332 330 328 328 327 326 325 325 324 324 323 322 319 319 318 319 318 318
299 300 298 297 297 298 297 296 296 298 303 311 315 316 320 322 324 324 326 327 327 328 327 328 328 329 329 329 329 328 330 330 330 329 329 328 326 325 324 322 322 323 322 322 321 320 319 318 318
297 297 300 298 296 296 297 293 294 297 303 309 312 314 316 320 322 324 326 327 328 328 327 327 328 329 329 328 328 328 328 328 328 329 329 329 327 325 324 323 322 323 322 321 321 319 318 318 317
293 295 294 297 296 295 296 291 298 297 300 305 311 312 313 316 320 324 325 328 329 328 328 329 329 328 328 328 327 328 328 328 329 330 330 329 329 327 325 323 323 323 323 322 320 319 318 317 316
291 285 288 291 294 294 294 292 297 296 297 297 306 311 312 314 316 319 322 326 327 329 328 329 329 328 328 328 328 328 328 328 328 329 330 330 330 329 325 324 323 321 320 320 319 318 317 316 315
287 285 285 287 292 292 291 292 296 295 295 296 297 308 311 313 316 319 319 321 325 328 329 329 330 329 329 329 328 328 328 328 328 328 328 330 331 329 327 326 325 321 319 317 315 314 313 313 313
292 289 286 287 291 291 290 291 294 295 293 293 293 297 308 311 316 317 318 320 321 324 328 329 328 330 329 328 327 327 327 329 330 330 330 330 330 329 328 327 325 322 320 319 317 315 315 314 313
291 291 290 292 290 290 288 289 292 292 293 294 294 294 297 306 306 308 314 316 318 321 323 327 328 329 329 330 330 330 330 331 332 332 331 331 330 329 328 327 325 324 321 320 318 315 313 313 312
286 288 285 289 288 288 288 292 290 293 291 293 293 294 294 297 301 301 301 308 315 318 320 323 327 329 329 330 329 325 326 326 327 328 329 330 330 330 329 327 326 324 323 321 320 317 315 314 311
286 291 288 287 286 283 288 285 288 294 291 291 293 292 293 294 295 298 299 299 303 313 318 322 324 328 329 330 328 328 327 326 328 330 330 329 330 330 329 329 327 326 324 323 321 319 318 317 315
288 291 289 287 284 283 281 280 283 288 289 291 292 293 294 296 296 297 295 297 297 300 310 317 322 325 327 328 329 327 327 328 328 325 326 325 327 327 327 327 327 326 324 323 321 318 317 317 316
290 289 291 287 284 280 283 281 281 285 289 291 291 294 295 296 296 296 294 294 295 297 303 310 317 320 324 326 328 327 326 325 323 323 324 326 326 326 326 325 324 325 324 322 321 320 318 315 315
288 287 281 281 278 279 278 279 289 288 287 290 292 293 294 292 292 293 293 294 295 298 300 302 307 314 318 323 326 326 326 324 324 324 325 325 323 323 325 323 323 322 323 321 320 319 317 315 313
286 288 281 274 274 277 279 278 284 288 294 290 289 290 290 292 292 291 292 294 296 298 301 302 301 302 303 309 319 323 325 324 324 324 324 324 323 322 322 322 323 321 321 320 318 316 314 313 311
285 285 288 280 269 274 278 280 286 288 287 288 289 289 290 291 293 294 294 296 298 299 302 303 302 302 301 300 300 302 312 321 322 321 321 320 319 316 318 318 315 315 315 314 312 310 306 305 304
289 290 283 283 271 270 276 277 281 284 287 289 288 289 290 292 293 294 296 297 298 300 302 303 303 302 303 304 305 304 303 314 318 318 315 314 313 311 310 308 307 305 304 305 305 302 300 298 297
284 285 282 286 279 274 271 278 283 286 286 287 287 288 291 292 293 294 295 295 296 299 301 302 302 302 302 304 306 308 308 311 313 312 311 308 307 305 303 302 300 299 299 298 296 295 293 292 291
284 286 284 280 276 278 278 279 286 285 285 287 289 290 290 292 293 294 295 295 296 298 299 300 300 300 299 299 301 301 302 304 304 303 302 302 300 299 297 295 294 293 292 292 292 290 290 289 289
Wind_Speed
5 3 2 5 5 5 2 1 1 3 1 1 4 5 5 3 3 2 1 5 11 10 9 12 12 13 12 12 11 11 15 15 15 14 15 15 16 15 17 18 18 17 17 18 18 19 19 19 19
3 2 5 3 6 3 3 2 4 2 3 5 5 3 3 2 1 5 9 6 10 10 9 10 10 12 14 12 11 12 16 14 16 15 15 13 13 15 19 18 16 18 16 16 18 18 18 18 18
1 4 4 5 3 3 3 3 4 2 5 1 3 4 3 3 2 9 2 14 12 10 9 9 10 12 14 13 11 13 15 14 15 16 16 15 14 13 14 15 17 15 16 16 17 17 18 17 17
4 5 4 5 2 2 3 3 5 6 3 2 2 6 1 2 9 4 12 13 13 11 9 10 11 13 14 13 12 12 13 14 14 15 15 15 15 15 14 12 11 14 15 15 14 15 18 16 15
4 3 4 3 2 2 3 2 8 5 2 2 1 3 2 1 4 12 14 10 12 11 8 8 10 11 13 14 13 12 12 13 14 14 14 13 14 14 13 14 12 11 17 13 15 16 15 14 14
4 3 4 1 3 2 2 5 5 3 3 3 3 5 5 2 9 13 13 10 9 11 9 6 8 9 10 12 13 12 11 13 13 14 13 12 13 12 13 13 12 13 16 14 14 14 14 13 14
4 3 3 3 2 3 4 5 5 5 5 3 7 6 1 4 7 11 11 10 9 9 10 7 6 7 9 10 10 10 10 10 10 9 12 11 10 10 10 10 11 12 13 13 13 13 13 12 12
3 4 2 2 2 2 4 4 2 5 4 3 3 5 4 5 11 11 10 9 9 8 9 8 7 5 7 8 9 9 10 10 10 10 10 10 10 9 9 8 9 10 12 12 12 12 12 10 9
3 3 3 4 4 3 3 5 1 1 6 1 3 4 2 14 15 10 8 8 8 8 8 7 8 6 6 7 6 8 9 9 9 8 9 8 5 6 7 7 10 10 10 10 10 10 10 10 9
4 4 8 5 4 3 6 4 8 4 3 2 2 3 9 16 15 16 13 13 13 12 11 9 8 8 5 5 7 6 6 6 6 6 6 4 5 5 6 7 8 8 9 9 10 9 9 6 4
2 6 5 3 4 3 2 4 5 8 3 8 9 8 16 15 13 15 15 13 14 12 10 10 9 9 8 5 4 3 3 4 4 6 5 5 4 3 3 3 3 3 5 3 4 4 4 4 3
4 3 3 2 2 3 1 2 5 7 6 2 6 12 16 19 18 17 17 14 11 11 11 12 11 10 9 6 6 4 4 4 4 5 6 5 3 4 3 2 3 2 2 3 2 2 3 3 3
4 2 5 0 2 2 2 4 5 8 3 3 9 12 16 18 17 16 14 10 11 11 11 12 11 11 9 9 7 7 5 5 5 5 6 5 4 4 3 3 2 2 2 2 1 1 2 2 2
6 3 2 2 2 3 3 1 3 5 6 6 11 13 14 17 19 15 15 15 14 12 13 12 12 11 10 8 10 7 7 7 5 5 5 6 4 4 3 3 2 2 2 2 1 1 1 1 2
5 4 3 2 2 2 4 2 6 0 3 6 8 8 8 11 10 17 16 15 13 12 11 11 12 10 10 9 8 8 7 7 6 6 7 7 6 6 4 3 3 3 3 3 1 0 1 2 2
4 5 1 1 6 1 4 6 9 6 6 8 8 7 8 10 14 12 11 12 13 12 12 11 8 11 11 10 7 6 7 7 7 7 7 9 8 7 6 4 4 4 3 3 2 1 1 2 2
6 4 5 4 4 5 5 4 3 4 7 9 8 7 8 8 7 9 10 12 11 12 11 11 11 12 12 9 7 8 9 7 7 6 7 9 9 9 6 5 3 4 3 3 2 2 2 2 3
7 4 1 3 2 1 2 7 7 4 7 8 6 7 9 10 16 10 8 8 9 10 10 10 10 12 11 7 5 5 5 6 5 6 7 9 8 8 6 4 5 5 4 3 2 3 3 3 2
8 4 4 2 3 1 5 7 11 6 3 7 8 8 11 13 9 7 10 10 8 8 11 13 12 12 9 6 6 4 7 7 6 6 9 9 7 7 8 5 6 5 6 6 5 3 4 2 2
4 4 2 4 1 3 4 9 11 6 7 8 10 9 11 9 7 7 9 9 12 14 12 11 13 12 11 8 8 4 7 5 6 7 8 8 9 9 8 7 7 8 5 5 5 4 3 3 3
3 5 4 3 2 1 4 11 9 7 5 7 7 8 6 13 14 8 10 13 12 14 15 15 14 13 13 13 6 3 3 2 4 3 4 6 8 7 9 9 8 8 7 7 7 7 7 4 2
6 5 5 4 3 5 1 9 7 11 14 7 10 8 12 12 11 11 12 10 15 16 14 14 14 14 13 14 11 13 11 11 8 8 8 8 9 9 8 9 8 8 7 7 7 5 5 4 5
6 7 6 4 3 0 1 4 7 6 14 12 13 12 14 14 14 15 13 13 10 8 12 13 13 13 13 14 14 11 11 9 5 4 6 6 6 7 7 7 7 7 6 6 5 5 5 5 3
11 8 6 4 3 5 7 7 7 8 11 7 7 12 13 14 12 12 5 7 8 6 7 9 12 12 12 13 14 14 13 9 7 7 7 5 6 5 6 5 5 5 5 5 5 5 6 5 4
4 8 2 1 1 9 4 6 18 8 6 9 12 12 11 8 8 7 9 9 7 7 6 7 10 11 10 12 12 13 12 10 11 9 7 6 4 3 7 5 5 4 4 4 4 4 4 4 4
6 6 6 8 6 3 1 11 9 11 12 7 7 7 5 7 5 7 7 7 8 7 6 5 6 6 7 7 9 7 9 7 7 7 6 5 4 5 5 5 4 4 4 4 5 3 3 4 4
6 11 8 4 3 3 6 9 11 9 11 8 10 6 11 8 6 6 5 6 6 6 7 7 6 5 6 6 5 5 4 6 7 6 5 4 4 4 6 4 6 4 5 5 7 5 6 6 6
10 10 5 2 3 4 5 6 8 5 8 11 8 7 6 5 4 4 5 5 3 4 4 5 5 5 4 5 4 4 6 5 5 5 6 7 6 5 9 6 8 7 7 7 8 7 6 9 5
6 7 3 6 6 5 1 8 9 9 5 6 8 8 8 8 7 6 5 5 5 4 4 4 4 6 5 3 3 4 4 5 5 5 6 7 8 8 9 8 8 7 8 8 8 8 7 10 8
6 9 9 6 2 2 4 10 5 3 2 4 9 9 7 5 7 6 6 7 7 5 5 5 4 5 5 4 4 4 4 6 7 7 7 7 8 7 10 9 9 8 7 7 9 8 7 9 8
Wind_Direction
338 345 84 39 56 62 98 202 319 126 143 263 103 137 157 72 161 175 53 167 145 137 125 126 118 118 108 96 99 109 101 95 91 92 85 85 85 91 96 89 83 78 76 81 84 79 78 75 72
340 11 44 75 82 72 273 238 189 191 112 130 89 84 66 110 135 124 133 168 139 129 120 125 121 121 109 100 89 89 93 91 94 91 87 77 74 85 83 92 91 86 77 89 85 86 84 78 74
50 44 73 86 108 149 192 192 155 101 151 105 99 45 134 146 72 149 139 149 134 127 125 132 129 123 114 110 99 86 99 95 89 93 93 94 93 73 56 70 75 85 90 87 92 89 87 82 76
31 16 45 80 151 201 191 177 144 137 258 135 143 79 66 302 152 178 148 148 134 130 133 142 139 130 121 116 113 102 99 97 97 94 94 96 96 98 95 96 80 82 86 85 91 92 92 87 81
38 62 59 79 264 243 230 166 141 151 115 99 260 142 60 81 102 136 151 146 141 133 131 143 141 133 130 126 119 110 106 103 101 100 99 99 100 101 99 103 103 90 91 88 84 83 89 88 80
47 90 68 177 253 249 265 156 140 127 118 127 94 106 159 82 141 150 151 138 143 137 133 135 129 135 129 126 125 122 117 113 111 112 107 104 102 100 103 107 111 109 98 89 88 90 91 87 82
101 71 176 172 261 297 171 166 160 144 139 199 163 119 252 181 175 153 146 135 139 140 134 133 138 139 135 126 119 118 116 112 112 105 117 101 89 91 84 94 105 107 104 91 92 96 91 90 83
86 85 92 231 232 262 151 171 185 139 193 102 180 170 183 184 159 137 132 134 140 143 144 145 143 149 146 139 127 124 121 113 102 97 90 92 92 85 76 57 94 96 93 93 90 88 83 79 90
129 90 223 221 175 227 153 167 10 64 115 160 162 152 285 136 149 137 144 141 157 160 163 157 152 156 152 145 132 125 124 119 110 103 96 94 102 99 93 78 71 82 90 94 86 82 73 67 68
119 157 204 205 204 241 177 191 163 133 118 215 166 52 125 146 160 164 174 173 179 176 177 172 163 154 158 143 150 139 131 132 128 126 119 111 108 103 97 75 67 72 71 73 70 63 62 59 63
173 174 191 222 224 149 239 171 173 126 213 210 192 160 157 156 173 180 188 188 186 180 177 176 173 162 160 166 156 149 146 140 133 134 132 123 110 109 98 104 86 77 60 68 60 50 50 57 53
121 219 157 0 175 85 211 67 183 193 213 213 191 150 163 173 181 188 192 187 183 182 183 182 178 171 169 161 177 162 150 157 161 158 149 144 136 133 128 121 115 104 86 97 73 59 53 46 40
149 199 172 194 238 207 108 241 260 240 211 76 131 153 177 183 190 188 194 195 183 190 188 193 183 180 177 166 172 185 178 175 184 171 167 158 156 155 148 146 144 134 134 118 97 48 40 33 24
179 170 104 117 258 215 195 309 87 278 156 139 156 177 185 187 189 185 192 198 196 197 201 200 190 184 176 180 173 181 188 194 184 186 182 174 171 166 162 157 168 167 170 141 128 90 21 358 343
148 174 17 211 151 242 171 301 227 63 314 172 184 183 191 196 179 195 193 197 199 198 207 206 191 179 183 188 187 179 187 187 195 197 189 190 182 181 178 176 184 184 174 164 149 148 305 309 326
120 82 191 220 160 80 137 258 264 167 161 233 209 198 194 199 206 197 186 195 196 200 188 186 193 188 187 188 190 194 190 196 200 195 191 195 198 196 188 187 200 187 177 179 182 201 275 281 281
12 163 194 292 221 129 157 239 261 160 175 235 230 219 206 213 218 210 201 194 187 193 184 185 183 191 193 191 188 193 197 200 205 198 201 203 205 201 185 190 175 172 175 195 193 209 224 259 272
176 165 81 214 228 134 194 241 266 200 180 229 255 230 225 221 222 207 202 196 186 191 189 188 191 191 191 184 185 196 191 209 205 207 205 209 211 194 185 186 176 168 170 192 193 207 211 241 264
127 115 141 234 5 143 233 249 251 215 222 231 241 230 234 231 226 198 191 194 199 204 198 192 190 193 178 178 180 197 213 205 203 199 207 200 192 190 188 195 175 176 192 202 186 181 210 247 208
103 120 220 298 152 173 318 265 256 240 232 210 224 218 234 243 218 208 195 191 195 205 208 201 202 192 193 193 195 184 190 211 207 199 206 204 196 188 183 189 192 187 192 196 187 182 182 218 188
100 138 157 221 329 259 306 268 243 258 230 232 224 240 207 227 240 218 208 204 201 204 201 205 203 198 195 192 174 134 138 143 188 192 204 212 205 206 195 194 192 195 195 202 199 192 194 210 174
161 173 128 148 135 235 77 282 259 239 237 211 234 217 240 218 234 243 212 214 206 209 202 201 198 198 199 187 191 197 204 209 209 201 204 201 198 208 207 203 202 200 199 207 207 189 197 182 207
185 148 127 112 122 99 280 305 259 235 235 238 226 219 228 237 214 234 223 221 224 209 199 200 198 197 195 192 197 202 206 209 188 180 191 199 195 200 200 195 202 204 197 208 175 167 194 207 196
146 103 66 73 80 265 200 191 243 210 219 229 223 230 223 226 227 234 220 204 217 206 206 191 190 198 194 194 197 202 208 197 186 184 201 211 200 196 206 208 190 194 182 181 182 185 184 190 196
151 141 55 245 215 233 297 217 255 262 254 218 220 226 228 214 217 227 216 204 207 202 212 199 191 194 185 197 198 202 207 200 203 198 197 199 180 176 207 183 188 188 169 169 167 172 175 170 168
178 165 160 188 197 239 91 231 253 245 267 251 256 249 248 247 247 242 240 219 183 181 196 200 182 178 177 191 203 197 197 195 204 198 197 200 187 173 158 172 176 171 160 151 144 129 114 120 115
188 209 152 81 12 69 216 285 294 259 273 261 247 246 259 249 237 232 219 208 175 165 176 184 185 178 179 190 190 208 229 180 190 185 184 167 144 134 111 128 111 106 108 110 104 99 98 91 83
182 144 123 88 221 250 264 269 243 326 258 262 282 284 313 274 243 232 168 152 151 143 156 167 163 163 161 171 185 194 206 213 203 164 155 140 126 118 110 115 104 94 86 89 106 100 89 95 77
125 181 184 145 177 180 290 260 217 248 359 315 288 279 253 226 212 193 171 141 143 142 159 159 138 135 139 146 166 169 181 167 143 135 129 124 122 119 109 105 100 100 98 93 85 92 109 102 108
187 172 177 171 217 226 132 256 206 190 274 282 277 284 274 217 187 177 169 152 151 169 162 154 148 134 144 145 139 123 125 117 119 118 115 117 113 107 118 105 102 100 99 103 115 115 118 115 122